Austin Bergstrom, TX

3:42 AM CDT on June 27, 2017 (GMT -0500)
Austin Bergstrom International

Weather History for KAUS - September, 2013

Change the Weather History Date:

Wednesday, September 4, 2013

  Actual Average Record
Temperature  
Mean Temperature 87 °F 81 °F  
Max Temperature 101 °F 93 °F 110 °F (2000)
Min Temperature 73 °F 69 °F 58 °F (1974)
Degree Days  
Heating Degree Days 0 0  
Month to date heating degree days 0 0  
Since 1 July heating degree days 0 0  
Cooling Degree Days 22 16  
Month to date cooling degree days 88 65  
Year to date cooling degree days 2427 2205  
Growing Degree Days 38 (Base 50)    
Moisture  
Dew Point 70 °F    
Average Humidity 64    
Maximum Humidity 94    
Minimum Humidity 33    
Precipitation  
Precipitation 1.31 in 0.09 in 1.31 in (2013)
Month to date precipitation 1.31 0.35  
Year to date precipitation 20.53 23.06  
Snow  
Snow 0.00 in - - ()
Month to date snowfall 0.0  
Since 1 July snowfall 0.0  
Since 1 September snowfall 0.0  
Snow Depth 0.00 in    
Sea Level Pressure  
Sea Level Pressure 29.96 in    
Wind  
Wind Speed 6 mph (South)    
Max Wind Speed 32 mph    
Max Gust Speed 45 mph    
Visibility 9 miles    
Events Rain , Thunderstorm    
T = Trace of Precipitation, MM = Missing Value Source: NWS Daily Summary

Daily Weather History Graph

Daily Weather History Graph

Search for Another Location

Airport or City:

Trip Planner

Search our weather history database for the weather conditions in past years. The results will help you decide how hot, cold, wet, or windy it might be!

Date:

Astronomy

Sep. 04, 2013 Rise Set
Actual Time 7:09 AM CDT 7:49 PM CDT
Civil Twilight 6:45 AM CDT 8:13 PM CDT
Nautical Twilight 6:16 AM CDT 8:42 PM CDT
Astronomical Twilight 5:47 AM CDT 9:11 PM CDT
Moon 6:22 AM CDT (9/4) 7:12 PM CDT (9/4)
Length of Visible Light 13h 28m
Length of Day
12h 39m
Waning Crescent, 1% of the Moon is Illuminated
Sep 4
Waning Crescent
Sep 5
New
Sep 12
First Quarter
Sep 19
Full
Sep 26
Last Quarter

Hourly Weather History & Observations

Time (CDT) Temp. Heat Index Dew Point Humidity Pressure Visibility Wind Dir Wind Speed Gust Speed Precip Events Conditions
12:53 AM 82.0 °F 84.5 °F 66.9 °F 60% 29.91 in 10.0 mi SSW 3.5 mph - N/A   Partly Cloudy
1:53 AM 82.9 °F 86.5 °F 69.1 °F 63% 29.91 in 10.0 mi SSW 6.9 mph - N/A   Mostly Cloudy
2:53 AM 82.9 °F 87.0 °F 70.0 °F 65% 29.92 in 10.0 mi SE 5.8 mph - N/A   Mostly Cloudy
3:49 AM 78.8 °F - 73.4 °F 83% 29.97 in 8.0 mi SW 6.9 mph - 0.12 in Rain Light Rain
3:53 AM 78.1 °F - 75.0 °F 90% 29.94 in 10.0 mi ENE 11.5 mph - 0.12 in Rain Light Rain
4:53 AM 78.1 °F - 75.0 °F 90% 29.96 in 10.0 mi SE 5.8 mph - 0.00 in Rain Light Rain
5:53 AM 77.0 °F - 75.0 °F 94% 29.96 in 10.0 mi SW 8.1 mph - 0.11 in   Overcast
6:53 AM 77.0 °F - 75.0 °F 94% 29.95 in 10.0 mi WSW 9.2 mph - N/A   Mostly Cloudy
7:53 AM 78.1 °F - 73.0 °F 84% 29.97 in 10.0 mi WSW 5.8 mph - N/A   Mostly Cloudy
8:53 AM 81.0 °F 86.2 °F 73.9 °F 79% 29.98 in 10.0 mi WSW 4.6 mph - N/A   Scattered Clouds
9:53 AM 86.0 °F 93.8 °F 73.9 °F 67% 29.99 in 10.0 mi Calm Calm - N/A   Partly Cloudy
10:53 AM 90.0 °F 96.4 °F 71.1 °F 54% 30.01 in 10.0 mi SSE 4.6 mph - N/A   Partly Cloudy
11:53 AM 93.0 °F 100.1 °F 71.1 °F 49% 30.00 in 10.0 mi East 4.6 mph - N/A   Clear
12:53 PM 96.1 °F 101.6 °F 69.1 °F 41% 29.98 in 10.0 mi SE 4.6 mph - N/A   Scattered Clouds
1:53 PM 97.0 °F 101.0 °F 66.9 °F 37% 29.96 in 10.0 mi East 5.8 mph - N/A   Mostly Cloudy
2:53 PM 99.0 °F 103.5 °F 66.9 °F 35% 29.93 in 10.0 mi SE 9.2 mph - N/A   Mostly Cloudy
3:53 PM 98.1 °F 101.2 °F 64.9 °F 34% 29.91 in 10.0 mi Calm Calm - N/A   Mostly Cloudy
4:53 PM 97.0 °F 100.4 °F 66.0 °F 36% 29.89 in 10.0 mi SE 6.9 mph - 0.00 in   Scattered Clouds
5:53 PM 98.1 °F 101.8 °F 66.0 °F 35% 29.88 in 10.0 mi East 8.1 mph - N/A   Scattered Clouds
6:53 PM 95.0 °F 99.5 °F 68.0 °F 41% 29.88 in 10.0 mi South 3.5 mph - N/A   Mostly Cloudy
7:23 PM 87.8 °F 91.4 °F 68.0 °F 52% 29.96 in 10.0 mi ENE 11.5 mph 25.3 mph 0.00 in Rain , Thunderstorm Light Thunderstorms and Rain
7:34 PM 80.6 °F 85.4 °F 73.4 °F 79% 29.99 in 1.5 mi NE 28.8 mph 39.1 mph 0.17 in Rain , Thunderstorm Heavy Thunderstorms and Rain
7:53 PM 73.9 °F - 71.1 °F 91% 29.98 in 1.5 mi Variable 4.6 mph - 0.70 in Rain , Thunderstorm Thunderstorms and Rain
8:11 PM 75.2 °F - 69.8 °F 83% 29.99 in 9.0 mi SW 16.1 mph 23.0 mph 0.37 in Rain , Thunderstorm Light Thunderstorms and Rain
8:26 PM 75.2 °F - 69.8 °F 83% 29.99 in 9.0 mi SW 11.5 mph 20.7 mph 0.38 in Rain , Thunderstorm Light Thunderstorms and Rain
8:53 PM 73.9 °F - 72.0 °F 93% 30.00 in 10.0 mi South 13.8 mph - 0.38 in Rain , Thunderstorm Light Thunderstorms and Rain
9:33 PM 75.2 °F - 71.6 °F 89% 30.03 in 10.0 mi WSW 11.5 mph - 0.00 in   Overcast
9:53 PM 73.9 °F - 72.0 °F 93% 30.00 in 10.0 mi SW 8.1 mph - 0.00 in Rain Light Rain
10:53 PM 75.0 °F - 68.0 °F 79% 30.01 in 10.0 mi Calm Calm - 0.00 in   Mostly Cloudy
11:53 PM 73.9 °F - 70.0 °F 87% 30.01 in 10.0 mi Calm Calm - N/A   Mostly Cloudy